Temp_Advection
nan nan nan nan nan nan nan nan nan nan nan nan nan nan nan nan nan nan nan nan nan nan nan nan nan nan nan nan nan nan nan nan nan nan nan nan nan nan nan nan nan nan nan nan
nan -0 -1 0 0 0 0 -0 -1 -1 -0 0 -0 -1 -1 0 0 0 -0 -1 -0 1 0 0 0 0 0 0 0 -0 -0 0 0 0 0 0 0 1 0 1 0 -0 0 nan
nan -0 -0 0 -0 -0 -0 -0 0 0 -0 -0 -0 0 -0 -0 0 0 0 -0 -0 -0 0 0 0 0 0 0 -0 0 0 1 1 -0 0 0 0 1 0 0 0 0 0 nan
nan -0 0 1 0 -0 -0 -1 1 0 -0 -0 0 0 0 -0 -0 -0 -0 -0 -0 -0 0 0 0 0 0 0 0 0 0 0 -0 -0 0 -0 0 0 0 0 -0 0 0 nan
nan -0 -0 -0 -0 -0 -0 -0 -0 -0 -0 -0 -0 -0 -0 -0 -0 -1 -0 -0 0 1 0 0 0 0 0 0 0 0 0 0 0 -0 -0 0 0 0 -0 -0 0 0 -0 nan
nan -0 -0 -0 -0 0 -0 0 -0 -0 -0 0 0 0 -0 -0 -0 -0 -0 -0 -0 0 1 1 0 0 0 -0 -0 0 0 0 0 0 0 -0 -0 -0 0 0 -0 0 -0 nan
nan -0 -0 0 -0 -0 0 -0 -0 -0 -0 -0 -0 -0 -0 -0 -0 -0 -0 -0 0 0 0 1 0 -0 -0 -0 -0 -0 0 0 -0 0 -0 -0 -0 -0 -0 -0 0 -0 -1 nan
nan 0 0 0 -0 -0 -0 -0 -0 -0 -0 -0 -0 -0 -0 -0 -0 -0 -0 -0 0 1 0 0 0 0 -0 0 0 0 0 -0 -0 -0 -0 -0 -0 -0 -0 -0 -0 -0 -0 nan
nan -0 0 -1 -1 -0 0 0 -0 -0 -0 -0 -0 -0 -0 0 0 -0 -0 -0 -0 1 1 0 0 0 0 0 0 0 0 0 0 0 0 0 0 0 -0 0 0 0 -0 nan
nan 0 -0 0 0 -0 -0 0 0 -0 -0 -0 -0 -0 -0 -0 -0 -0 -0 -0 -0 0 0 1 1 -0 0 0 0 0 0 0 0 0 0 0 0 0 0 0 0 0 -0 nan
nan -0 -0 -0 0 0 -0 -0 -0 0 -0 -0 -0 -0 -0 -1 -0 -0 -0 0 0 0 0 0 0 0 0 0 0 0 0 0 0 0 0 -0 -0 -0 -0 0 0 0 -0 nan
nan 0 -0 -0 0 0 -0 -0 0 -0 -0 -0 -0 0 0 -0 -0 -1 -1 -0 0 0 0 -0 0 0 0 0 0 0 0 0 -0 -0 -0 -0 -0 -0 -0 -0 -0 -0 -0 nan
nan -0 -0 0 -0 -0 -0 -0 -0 0 -0 -0 -0 0 0 -0 -0 -0 -1 -0 -0 -0 -0 -0 -0 0 0 0 0 -0 -0 -0 -0 -0 -0 -0 -0 -0 -0 -0 -0 -0 -0 nan
nan -0 -0 0 0 -0 -0 -0 -0 -1 -0 0 -0 -0 0 0 0 -0 -0 -0 -0 -0 -0 -0 -0 -0 -0 -0 -0 -0 -0 -1 -1 -1 -0 -0 -0 -0 -0 -0 -0 -0 -0 nan
nan -0 0 0 0 -0 -0 -0 -0 0 0 -0 -0 -0 -0 -1 -0 -0 -0 -0 -0 -0 -0 -0 -0 -0 -0 -0 -0 -0 -0 -1 -1 -1 -1 -1 -1 -0 -0 -0 -0 -0 -0 nan
nan -0 -0 -0 0 -0 -0 -0 -0 0 -0 0 -0 -0 0 -0 -1 -1 -0 -0 -0 -0 -0 -0 -0 -0 -0 -0 -0 -0 -0 -0 -0 -0 -0 -1 -1 -1 -1 -0 -1 -0 -0 nan
nan -0 -0 -0 -0 -0 0 -0 -0 0 -0 -0 0 0 -0 -0 0 0 -0 -0 -0 0 0 0 -0 -0 -0 -0 -0 -0 -0 -0 0 0 0 0 0 -0 -0 -0 -0 -0 -1 nan
nan -0 -0 -0 -0 0 -0 0 0 -0 0 -0 -0 -0 0 0 0 0 -0 0 0 0 0 0 0 0 0 -0 -0 -0 -0 -0 -0 -0 -0 -0 -0 -0 -0 -0 -0 -0 -0 nan
nan 0 -0 0 0 -0 -0 -0 -0 0 0 -0 -0 -0 -0 -0 -0 0 0 0 0 0 0 0 0 0 1 1 0 0 0 -0 -0 -0 -1 -1 -1 -1 -1 -1 -1 -0 -0 nan
nan 0 -0 0 0 -0 -0 -0 0 0 -0 -0 -0 -0 -0 -0 -0 0 0 0 -0 -0 -0 -0 -0 -0 -0 -0 -0 -0 0 0 0 0 0 -0 -0 -1 -1 -1 -1 -1 -1 nan
nan -0 -0 -0 -0 0 -0 0 -0 -0 0 0 -0 -0 -0 -0 -0 -0 0 0 0 0 0 -0 -0 -0 -0 -0 -1 -1 -1 -1 -1 -0 0 1 0 -0 -0 -1 -1 -1 -1 nan
nan -0 0 -0 -0 -0 0 0 -0 0 -0 0 0 0 0 -0 -0 0 0 0 0 0 0 -0 -0 -0 0 -0 -1 -1 -0 -0 -1 -1 -1 -1 -0 0 0 0 0 -0 -1 nan
nan -0 0 0 -0 0 0 -0 0 0 -0 0 0 0 0 0 0 0 0 0 0 0 0 -0 -0 -0 0 0 0 -0 -0 0 -0 -1 -1 -1 -1 -1 -0 -0 -0 0 0 nan
nan -0 0 0 -0 0 0 0 0 0 0 0 0 0 0 0 0 0 0 0 -0 -0 -0 -0 -0 -1 -0 0 0 0 -0 -0 -0 -0 -1 -1 -1 -1 -0 -0 -1 -0 0 nan
nan 0 0 -0 -0 0 0 0 0 0 0 0 0 0 0 0 0 0 -0 0 -0 -0 -0 -0 -0 -0 -0 -0 -0 -0 0 0 -0 -0 -1 -1 -1 -1 -1 -0 -0 -1 -0 nan
nan nan nan nan nan nan nan nan nan nan nan nan nan nan nan nan nan nan nan nan nan nan nan nan nan nan nan nan nan nan nan nan nan nan nan nan nan nan nan nan nan nan nan nan
Wind_Speed
8 4 9 13 15 17 14 17 20 17 18 8 15 15 20 13 7 9 9 12 16 22 10 10 11 10 11 17 15 18 17 18 26 24 25 24 19 20 20 20 18 17 17 17
5 8 13 15 15 16 16 18 19 16 16 10 9 16 13 9 2 5 10 11 10 10 6 6 11 6 10 9 10 17 18 23 29 22 18 14 21 22 18 17 19 19 17 16
8 8 10 12 14 12 16 17 15 12 6 10 7 8 9 4 4 7 7 6 6 4 11 14 10 6 8 11 9 15 16 29 30 19 16 16 16 21 18 15 14 15 13 13
8 11 12 11 11 7 10 13 17 10 7 3 8 3 8 4 7 4 5 1 6 4 8 9 10 9 7 9 4 11 10 16 25 20 13 12 11 11 14 11 11 13 16 16
4 8 9 8 6 7 6 1 10 5 4 4 8 2 2 4 3 8 3 8 8 8 14 11 11 11 7 10 8 11 9 17 16 10 14 9 7 10 8 9 17 10 18 17
11 11 6 4 10 8 5 1 2 1 1 3 1 2 2 3 2 5 4 13 10 9 15 13 13 14 8 10 9 8 9 13 20 16 11 16 9 12 7 15 16 22 24 20
5 5 3 4 6 3 7 6 2 4 1 3 2 2 2 3 2 5 5 11 13 17 17 17 13 5 5 5 3 3 5 6 10 19 24 20 20 20 20 16 26 23 21 20
3 2 3 2 3 4 2 5 2 3 3 3 6 3 3 3 8 8 13 13 15 18 18 20 16 14 10 8 5 2 7 7 7 7 10 17 16 16 21 19 19 22 23 23
3 2 4 11 11 4 3 2 4 3 7 2 4 2 4 5 7 10 13 12 14 19 21 20 19 14 12 9 7 6 6 6 4 3 2 2 4 9 15 17 17 20 21 25
0 0 5 4 5 5 4 7 3 2 2 3 1 5 4 4 8 8 9 10 13 20 21 17 15 14 11 10 9 8 8 6 5 3 2 1 1 2 5 9 12 16 20 22
6 3 1 5 3 4 3 4 3 2 2 1 3 3 6 10 8 9 10 12 13 17 17 17 15 12 11 10 10 10 9 8 6 6 4 3 2 3 5 8 10 12 13 16
1 3 2 0 2 3 4 5 3 3 5 4 5 3 9 10 11 14 13 12 12 13 13 12 11 11 11 10 10 10 9 8 8 8 7 6 6 7 8 9 10 12 11 16
5 3 2 1 2 2 4 9 8 2 3 7 3 4 8 10 10 15 15 12 11 10 9 8 9 10 10 9 8 9 9 9 8 8 8 8 8 9 9 10 11 13 12 16
4 4 5 3 2 4 6 10 11 5 4 4 5 12 9 8 8 12 14 12 9 8 6 6 7 8 7 8 8 8 9 10 10 10 10 11 10 12 12 12 13 13 12 15
3 3 5 4 4 5 6 7 10 10 7 6 11 11 11 10 9 14 14 11 10 8 5 6 5 6 7 8 9 10 10 11 10 10 10 12 12 12 12 13 14 14 15 15
3 1 3 3 6 7 6 10 8 8 8 7 10 7 8 16 18 15 12 11 9 5 4 1 3 6 7 10 11 12 13 12 11 9 9 11 12 12 13 15 15 14 14 14
3 2 3 1 4 4 3 5 6 4 6 4 4 3 6 6 9 10 11 8 6 4 3 2 3 7 9 12 13 14 13 11 11 11 12 13 14 14 14 13 14 16 17 16
1 3 2 2 2 3 2 3 2 4 3 4 6 5 6 6 8 8 7 6 6 3 2 3 5 6 6 9 11 12 11 10 10 11 12 13 15 15 16 16 16 16 16 17
5 2 2 2 1 4 3 2 3 4 3 4 4 4 9 7 3 2 5 6 6 6 6 9 11 14 13 13 14 13 13 14 13 15 17 19 21 21 20 19 19 18 18 17
3 2 1 3 1 2 1 3 2 3 1 4 3 4 5 2 1 1 2 1 2 7 11 12 13 12 11 11 12 14 14 16 17 19 20 20 21 21 21 22 23 22 20 20
3 2 1 2 1 1 4 3 1 1 4 3 2 5 6 2 3 6 4 5 8 8 8 8 7 8 10 12 13 14 16 18 19 21 22 22 22 22 22 22 22 23 23 23
2 2 1 2 1 4 6 2 0 2 2 3 3 3 3 5 2 2 5 6 8 6 8 10 11 12 13 15 17 19 20 19 20 24 25 26 26 26 25 24 22 21 22 23
2 2 1 1 2 1 8 3 4 3 2 2 1 3 3 3 2 5 7 8 9 12 13 14 16 18 18 19 19 21 22 22 24 25 26 27 26 26 25 26 25 24 22 24
4 3 2 4 1 5 7 6 7 4 4 5 5 5 6 4 6 9 9 10 12 12 14 16 19 21 23 23 22 22 24 29 28 28 29 29 28 28 27 25 24 25 25 25
3 6 4 4 7 5 7 7 5 7 7 6 7 5 4 6 6 9 11 12 14 16 18 20 22 25 27 27 27 28 29 26 27 28 29 29 29 29 29 28 27 27 26 24
10 6 4 5 2 4 5 6 5 7 7 6 5 4 5 6 7 9 11 12 15 18 21 23 24 25 27 29 29 28 28 27 28 30 31 30 30 29 29 29 32 27 26 26
Wind_Direction
198 204 223 230 229 244 261 268 273 275 279 292 238 232 243 249 263 4 324 309 240 245 224 251 237 219 246 229 241 227 222 182 173 169 185 194 195 193 191 189 196 192 198 203
230 243 239 247 274 258 248 260 269 280 270 256 239 232 244 214 244 330 323 287 293 201 205 234 220 235 204 234 231 229 214 195 185 194 180 196 192 193 192 186 187 194 191 195
229 245 185 239 258 262 265 260 266 266 301 239 265 222 227 292 249 292 292 315 286 148 146 120 131 192 239 227 221 210 192 191 189 196 191 188 192 189 184 193 202 201 197 208
268 275 269 264 265 244 269 241 248 263 210 202 186 190 200 354 306 279 303 97 46 93 153 159 205 291 255 79 95 209 171 172 178 178 170 170 179 190 209 211 217 239 238 250
268 282 268 259 253 223 243 159 161 231 210 149 212 220 101 357 2 9 1 95 103 148 154 135 120 133 169 117 115 104 175 179 146 184 226 212 228 219 235 231 239 252 273 248
258 277 294 296 297 287 232 217 228 185 235 179 132 267 88 347 315 326 38 60 79 98 117 126 129 145 221 243 249 214 194 142 150 175 181 210 197 223 304 260 258 244 257 243
274 227 314 271 302 229 208 277 219 195 130 73 275 66 80 356 23 286 103 64 76 90 101 100 106 82 21 20 351 289 256 226 220 236 244 240 238 230 213 212 231 237 244 227
315 293 325 46 240 326 245 209 286 320 89 96 12 18 13 354 87 87 89 87 93 95 101 94 85 83 68 77 71 129 200 209 242 233 222 224 233 231 231 238 239 237 241 252
331 348 273 227 256 292 303 30 258 294 113 101 127 131 124 73 70 73 77 84 91 96 90 92 92 93 82 86 92 105 111 125 131 141 146 176 214 219 228 236 240 238 237 242
232 26 269 300 321 234 241 302 11 262 59 66 59 63 58 84 113 98 92 97 90 90 94 88 97 100 89 93 90 91 94 89 92 99 118 121 174 228 225 237 239 244 249 250
253 232 237 217 14 357 320 325 278 258 137 101 112 44 105 109 109 103 91 73 72 81 87 84 85 90 89 88 86 80 73 64 55 42 31 10 327 296 266 263 262 261 264 265
72 289 16 9 159 248 274 317 339 63 339 19 90 59 89 97 99 97 93 88 80 77 82 86 89 87 76 68 65 61 57 51 33 22 5 353 348 328 311 294 285 278 279 278
348 352 319 159 290 315 10 6 360 14 14 13 108 134 98 91 97 109 108 98 91 88 86 87 75 68 65 58 45 27 16 12 6 2 346 334 327 315 307 304 299 295 290 282
301 34 52 97 166 272 9 15 19 50 50 76 57 125 126 136 135 124 126 129 137 124 107 81 59 44 35 31 23 15 360 351 341 333 323 320 319 308 307 299 296 294 290 284
38 69 29 64 80 46 34 31 23 31 20 77 157 146 163 160 155 154 146 146 138 119 77 48 30 15 9 355 354 349 342 341 340 332 325 318 314 308 306 303 300 294 288 281
359 90 31 39 20 76 66 21 30 22 6 71 90 102 142 145 145 141 154 157 140 132 118 103 357 349 344 339 341 342 340 347 343 338 337 333 332 326 320 316 311 305 297 287
39 121 31 339 352 338 359 8 16 64 35 348 69 23 116 110 113 155 157 160 157 168 222 303 326 330 327 331 335 341 342 342 348 349 347 343 345 344 343 336 326 319 312 303
57 102 102 265 339 39 200 60 349 323 27 52 72 44 95 137 126 135 120 164 171 194 218 271 295 291 316 328 336 337 336 338 347 342 342 335 332 336 338 337 336 332 324 317
11 313 53 79 63 158 156 87 15 33 85 53 103 82 71 70 80 198 200 192 209 256 293 313 317 323 329 329 334 329 326 332 337 335 332 333 331 331 327 326 322 322 321 318
307 263 91 352 3 328 61 120 78 336 29 23 22 117 118 132 71 176 191 237 299 306 301 301 302 302 303 301 302 304 309 316 323 320 321 320 320 316 315 318 320 317 311 309
338 355 26 359 325 120 126 143 167 45 221 94 33 124 153 149 131 168 224 277 282 284 275 291 288 285 279 291 302 304 307 309 307 304 302 305 311 312 315 316 317 319 318 313
316 355 218 43 344 294 144 163 316 172 138 133 146 149 154 110 154 254 278 292 297 298 299 301 298 302 307 307 304 304 301 302 293 291 298 302 306 310 312 312 313 315 314 313
312 179 238 195 232 51 186 94 154 151 86 235 232 273 244 248 288 296 308 307 307 307 311 313 311 310 312 307 303 297 299 296 298 302 304 305 305 305 305 306 307 308 310 312
201 144 226 20 172 201 212 221 239 240 215 247 249 243 271 276 291 304 308 311 309 306 304 309 309 306 305 306 302 294 290 298 303 302 303 305 304 304 303 302 302 303 305 307
190 145 215 252 257 176 224 214 235 248 241 244 248 250 254 281 300 305 309 312 311 313 314 310 306 305 305 306 304 303 304 302 297 297 298 298 300 301 301 299 299 299 299 300
183 195 168 231 96 115 151 194 214 231 244 237 245 282 296 301 301 305 312 316 313 312 309 305 303 303 300 303 305 303 301 300 298 297 296 297 298 298 296 298 299 296 295 296
Height
1478 1481 1480 1475 1476 1471 1470 1467 1461 1456 1454 1456 1450 1449 1444 1445 1441 1440 1440 1441 1442 1444 1444 1448 1452 1452 1455 1458 1458 1462 1466 1467 1468 1466 1477 1481 1484 1489 1490 1495 1500 1502 1507 1511
1478 1474 1470 1470 1472 1468 1467 1462 1458 1452 1449 1453 1449 1445 1441 1440 1442 1442 1441 1440 1440 1442 1441 1446 1450 1450 1454 1458 1459 1460 1460 1463 1468 1474 1475 1479 1484 1490 1492 1493 1496 1501 1503 1506
1475 1466 1469 1470 1466 1463 1460 1455 1454 1456 1452 1448 1443 1445 1442 1441 1441 1440 1441 1442 1441 1441 1445 1445 1447 1452 1454 1457 1456 1455 1456 1463 1465 1471 1474 1478 1480 1485 1487 1493 1495 1498 1501 1505
1469 1462 1459 1460 1459 1459 1455 1446 1446 1453 1448 1447 1445 1462 1443 1447 1444 1441 1441 1441 1441 1444 1447 1449 1451 1452 1457 1455 1454 1454 1456 1457 1465 1469 1473 1476 1482 1482 1487 1490 1492 1495 1499 1502
1468 1461 1458 1454 1452 1453 1450 1440 1448 1443 1443 1439 1441 1442 1451 1451 1447 1448 1444 1444 1446 1447 1447 1446 1446 1449 1454 1454 1457 1458 1458 1460 1463 1467 1473 1476 1479 1483 1485 1485 1490 1493 1497 1498
1465 1459 1456 1451 1447 1445 1444 1442 1442 1444 1442 1437 1436 1439 1451 1456 1457 1454 1451 1447 1448 1448 1446 1446 1448 1450 1456 1456 1455 1459 1463 1461 1460 1466 1471 1476 1479 1481 1482 1483 1487 1490 1489 1493
1455 1454 1454 1454 1450 1443 1443 1440 1432 1432 1431 1438 1442 1439 1455 1456 1456 1456 1453 1451 1450 1448 1450 1450 1449 1454 1455 1455 1458 1458 1460 1463 1465 1469 1474 1473 1477 1477 1478 1481 1484 1484 1487 1487
1456 1449 1454 1451 1450 1440 1442 1442 1438 1425 1429 1441 1440 1449 1454 1458 1455 1457 1455 1455 1457 1451 1455 1454 1454 1456 1459 1459 1461 1464 1468 1465 1469 1471 1471 1472 1471 1473 1473 1476 1478 1479 1482 1484
1456 1454 1450 1449 1444 1441 1434 1436 1436 1433 1426 1437 1448 1457 1459 1459 1457 1456 1457 1459 1461 1461 1458 1457 1461 1462 1465 1466 1466 1467 1466 1467 1469 1470 1469 1469 1470 1469 1471 1472 1474 1475 1477 1478
1458 1453 1449 1444 1442 1434 1436 1429 1434 1431 1432 1440 1441 1446 1450 1460 1460 1461 1464 1466 1465 1463 1462 1466 1466 1467 1469 1470 1471 1470 1470 1470 1471 1471 1470 1469 1468 1469 1470 1471 1471 1473 1473 1473
1452 1453 1444 1441 1441 1441 1435 1432 1426 1425 1429 1434 1442 1460 1453 1459 1462 1464 1466 1467 1467 1467 1469 1470 1471 1472 1473 1475 1476 1475 1474 1474 1474 1472 1471 1470 1470 1469 1470 1470 1470 1470 1470 1469
1447 1446 1449 1442 1438 1437 1437 1430 1425 1440 1435 1432 1444 1467 1455 1459 1464 1467 1469 1469 1470 1470 1473 1474 1475 1475 1474 1476 1476 1476 1475 1476 1474 1470 1470 1470 1468 1469 1468 1469 1468 1467 1463 1467
1448 1448 1455 1448 1446 1438 1436 1431 1427 1423 1429 1441 1449 1471 1460 1463 1466 1469 1471 1473 1474 1474 1476 1477 1477 1477 1477 1478 1476 1474 1474 1472 1472 1469 1469 1468 1467 1466 1466 1466 1465 1463 1457 1465
1450 1451 1455 1465 1458 1451 1449 1441 1435 1435 1453 1451 1452 1463 1465 1466 1467 1469 1472 1474 1478 1478 1478 1477 1478 1478 1479 1477 1476 1475 1472 1470 1469 1468 1470 1467 1464 1467 1463 1462 1459 1457 1455 1459
1448 1461 1461 1452 1449 1450 1449 1446 1444 1444 1441 1453 1459 1457 1459 1462 1465 1468 1470 1474 1476 1478 1478 1476 1476 1477 1475 1475 1473 1473 1472 1472 1471 1469 1466 1465 1464 1465 1461 1459 1458 1455 1453 1451
1449 1463 1459 1461 1451 1452 1457 1454 1450 1450 1448 1447 1452 1459 1457 1462 1466 1470 1473 1476 1476 1476 1478 1479 1477 1473 1475 1474 1473 1472 1471 1467 1468 1469 1467 1466 1463 1460 1456 1454 1452 1450 1449 1448
1454 1461 1468 1467 1455 1454 1463 1462 1459 1455 1456 1457 1459 1459 1457 1462 1466 1470 1471 1474 1475 1476 1478 1475 1474 1474 1473 1471 1469 1469 1468 1469 1466 1463 1463 1462 1459 1456 1453 1449 1447 1447 1445 1442
1455 1460 1468 1473 1461 1475 1463 1462 1462 1462 1459 1460 1462 1461 1462 1463 1465 1468 1471 1474 1475 1476 1476 1476 1474 1476 1473 1468 1465 1467 1467 1466 1461 1461 1459 1460 1458 1453 1450 1444 1442 1440 1441 1440
1456 1456 1470 1476 1469 1460 1462 1463 1464 1466 1464 1462 1463 1464 1466 1467 1469 1471 1471 1471 1471 1472 1472 1471 1469 1466 1464 1461 1461 1466 1468 1465 1461 1458 1455 1450 1449 1445 1443 1440 1440 1439 1435 1436
1456 1455 1463 1463 1465 1458 1461 1463 1463 1464 1468 1464 1463 1465 1467 1468 1472 1474 1472 1472 1473 1472 1470 1469 1469 1468 1467 1467 1469 1470 1468 1462 1455 1454 1450 1446 1446 1446 1444 1438 1435 1434 1432 1430
1464 1463 1466 1465 1468 1461 1461 1462 1463 1466 1474 1466 1465 1465 1466 1468 1471 1471 1471 1471 1471 1471 1471 1470 1469 1468 1467 1468 1468 1464 1459 1454 1452 1449 1446 1446 1448 1445 1441 1437 1435 1431 1428 1425
1469 1471 1465 1466 1466 1476 1460 1462 1462 1466 1465 1465 1465 1465 1466 1467 1468 1469 1469 1468 1468 1468 1467 1466 1465 1465 1464 1462 1459 1455 1452 1450 1448 1446 1444 1443 1442 1439 1434 1431 1428 1425 1424 1423
1472 1467 1469 1465 1464 1459 1459 1461 1462 1462 1462 1462 1463 1464 1464 1466 1467 1467 1467 1467 1466 1465 1464 1463 1461 1459 1458 1456 1454 1450 1448 1446 1443 1441 1439 1437 1435 1431 1428 1424 1420 1420 1419 1418
1464 1464 1469 1465 1457 1457 1458 1459 1460 1460 1461 1461 1462 1462 1462 1464 1464 1464 1464 1465 1464 1463 1462 1460 1458 1455 1452 1450 1448 1445 1442 1440 1437 1434 1431 1429 1426 1423 1421 1419 1417 1415 1413 1411
1463 1463 1462 1460 1454 1455 1456 1458 1458 1458 1459 1460 1460 1461 1462 1462 1463 1462 1462 1461 1460 1459 1457 1455 1453 1451 1447 1445 1442 1440 1437 1435 1431 1429 1426 1423 1421 1418 1415 1413 1411 1409 1407 1406
1454 1455 1460 1458 1452 1452 1454 1455 1456 1457 1457 1458 1459 1460 1460 1461 1461 1461 1460 1460 1458 1456 1454 1451 1449 1446 1442 1439 1437 1434 1432 1429 1426 1422 1419 1417 1415 1412 1409 1407 1403 1403 1402 1400